Location: Kellogg
(38.0159°N, 90.0546°W)
Time: 13:00:57
(UTC+00:00)

Courier 1B - Pass Details

Date: 16 September 2024
Orbit: 962 x 1208 km, 28.3° (Epoch: 11 October)

Event Time Altitude Azimuth Distance (km) Brightness Sun altitude
Rises 00:03:23 0° 264° (W) 4,029 13.2 -0.1°
Reaches altitude 10° 00:06:34 10° 253° (WSW) 3,094 11.6 -0.7°
Maximum altitude 00:12:58 29° 197° (SSW) 2,044 9.4 -2.0°
Drops below altitude 10° 00:19:28 10° 141° (SE) 3,137 9.7 -3.2°
Sets 00:22:44 0° 131° (SE) 4,093 10.2 -3.9°
